Wind_Speed
13 12 11 11 11 10 11 13 11 12 12 11 9 9 8 7 4 4 5 4 5 4 14 6 4 9 10 10 3 10 4 10 6 4 3 2 2 3 1 4 4 6 5 5 2 3 6 12 5 2 4 1 19 14
15 15 13 13 12 11 11 13 12 10 11 10 9 8 7 7 5 1 4 5 8 9 8 11 13 6 7 1 6 9 5 1 5 3 2 1 2 2 3 3 4 2 6 5 6 4 4 16 16 8 7 7 15 23
17 16 15 14 13 12 12 12 12 10 10 10 9 7 6 6 6 4 1 6 4 5 12 6 5 1 2 2 2 2 3 4 4 5 1 2 1 2 3 2 3 5 6 4 3 4 4 21 19 18 16 16 6 19
19 19 17 17 15 14 13 12 11 10 10 10 9 7 6 6 6 5 1 4 7 4 3 4 7 2 4 8 4 6 3 3 4 5 1 0 0 1 2 4 2 3 6 2 1 2 0 11 9 10 17 18 16 4
20 19 17 16 15 15 13 12 11 10 10 9 9 7 6 5 3 2 10 4 5 3 3 11 8 5 7 5 5 5 6 7 4 3 1 2 3 3 5 1 3 5 2 3 2 1 6 6 10 6 7 9 9 8
18 18 16 14 14 13 12 11 11 10 10 9 8 6 5 4 1 7 3 3 1 3 3 3 6 4 8 4 5 7 6 5 4 3 3 4 1 5 1 0 4 16 15 11 4 1 9 11 10 9 6 5 4 4
13 14 15 15 15 14 11 10 10 9 9 8 7 6 4 4 3 3 1 1 2 4 2 6 7 4 10 3 2 6 8 6 5 3 5 3 4 9 1 3 5 10 14 11 9 11 14 10 10 13 7 5 3 0
15 13 13 15 15 14 11 10 9 8 8 7 5 4 3 2 1 2 1 4 3 2 2 1 5 2 8 3 2 8 4 6 5 5 3 4 4 5 3 6 2 3 3 8 12 11 11 8 9 10 6 3 1 3
18 17 15 13 12 12 11 9 7 6 5 4 2 1 2 3 1 0 4 6 4 4 2 2 1 3 2 5 8 7 8 2 5 6 5 4 2 4 8 9 12 9 12 14 11 7 4 5 6 8 10 5 1 3
22 20 18 15 12 11 11 9 7 5 4 2 4 2 1 1 3 4 2 2 2 4 4 5 5 2 1 2 2 4 0 2 1 6 6 3 4 12 17 14 14 10 16 13 11 6 2 3 9 9 9 8 6 1
23 23 21 18 14 11 12 10 8 5 4 5 2 1 1 3 2 2 2 4 5 4 7 8 12 4 4 2 2 4 1 2 1 5 4 2 3 4 16 18 19 18 16 16 12 9 5 4 5 7 8 9 11 8
22 21 22 19 17 13 13 12 10 9 8 6 3 2 1 2 2 1 3 4 4 4 5 6 8 11 2 4 4 0 1 2 4 5 3 1 2 10 13 14 12 10 9 8 5 3 2 3 5 6 6 7 7 14
22 20 21 16 19 15 15 14 11 13 8 1 1 1 3 3 1 4 4 3 3 3 2 3 4 7 3 3 4 2 1 4 7 2 3 2 8 15 14 13 10 6 4 3 4 6 8 8 7 7 8 7 6 6
21 19 22 19 19 17 17 14 13 14 5 2 3 3 4 4 4 4 3 3 1 4 5 7 4 2 3 2 3 2 4 2 3 3 1 1 8 9 8 7 8 10 11 13 15 16 15 17 17 13 13 14 12 10
19 18 22 20 23 18 17 14 15 12 5 3 3 4 6 11 9 4 8 5 2 2 4 4 2 3 1 1 2 1 2 2 3 1 1 3 5 6 9 11 13 17 21 24 24 24 23 22 23 23 21 19 17 15
20 20 26 25 23 19 16 14 14 9 3 3 6 4 6 2 5 3 11 4 5 1 3 1 1 2 2 3 1 4 0 1 1 1 2 1 6 10 14 20 24 23 22 19 19 19 18 18 20 23 24 15 13 13
26 25 26 26 22 18 15 15 12 5 4 4 5 7 6 1 2 0 4 4 5 3 1 3 2 3 2 1 1 3 2 1 7 5 5 11 17 22 22 21 17 18 15 15 16 15 12 11 11 11 10 10 12 10
23 26 31 25 23 20 19 11 5 5 6 8 5 5 8 1 4 4 4 6 7 4 2 1 0 2 2 2 2 1 9 6 3 8 14 16 17 16 17 17 16 15 13 13 8 9 9 9 10 10 8 5 3 3
28 33 26 24 23 14 7 6 3 3 7 9 9 11 4 5 8 4 5 4 3 2 2 2 1 0 2 4 7 5 3 5 11 13 13 11 13 14 13 10 10 10 7 3 3 2 2 2 2 2 8 6 5 2
23 24 25 25 15 4 4 4 5 4 4 3 3 2 2 3 7 6 5 5 5 3 2 2 2 3 6 5 2 2 8 9 8 11 10 8 7 6 5 6 4 2 3 5 4 3 3 2 2 1 1 3 11 11
27 28 24 14 3 3 3 3 6 3 4 2 0 2 1 4 3 4 3 4 2 1 1 7 9 6 2 3 7 11 10 7 7 8 9 7 4 3 2 8 10 5 6 6 9 8 9 7 5 4 5 5 6 6
23 18 10 6 3 3 3 1 1 3 5 4 5 2 3 4 4 4 5 2 2 1 0 2 6 9 11 11 9 5 3 4 3 3 3 1 1 3 3 3 5 7 8 10 14 12 12 10 10 14 16 16 14 15
10 5 3 3 2 2 2 5 5 3 3 5 3 3 3 3 3 4 0 2 4 6 7 11 10 9 6 3 2 2 2 2 2 5 9 8 8 8 8 8 9 11 12 14 16 16 19 20 21 23 24 25 26 26
1 1 2 2 3 3 2 1 3 3 3 3 3 2 2 1 4 2 2 3 5 7 7 3 1 2 2 1 2 4 5 9 13 13 13 11 13 12 12 17 23 27 28 29 29 28 27 25 24 23 23 22 22 21
1 1 2 3 3 2 1 3 2 4 2 3 2 1 1 1 2 1 2 4 6 7 4 2 3 3 2 5 6 8 10 12 12 12 11 12 17 22 24 25 24 23 21 20 18 15 13 11 10 11 11 14 14 15
1 1 2 3 3 1 1 1 0 1 0 2 1 2 1 1 2 3 3 3 6 2 1 6 6 6 10 10 18 23 22 19 17 15 15 15 18 19 18 14 12 10 8 7 5 4 8 7 8 8 9 12 10 11
1 2 0 0 0 2 3 2 2 2 2 3 3 3 2 2 3 3 4 5 2 3 5 6 11 19 24 26 21 17 15 13 11 8 6 7 8 4 1 5 8 6 6 5 5 9 8 9 12 9 6 7 11 7
3 2 1 1 1 2 1 3 3 3 3 4 4 4 2 3 2 2 2 8 12 16 17 25 22 21 18 17 12 9 6 5 9 12 13 11 10 7 6 8 7 4 5 5 5 3 4 5 5 7 4 6 6 2
3 3 4 2 2 4 5 4 4 6 6 9 3 2 2 3 6 12 19 26 23 17 14 12 11 13 12 10 8 5 3 2 9 10 9 11 10 9 7 5 4 4 4 4 3 5 6 7 8 4 2 3 4 1
3 7 3 4 4 4 3 7 3 5 7 8 4 6 12 17 19 18 21 18 17 15 8 5 4 5 5 5 4 4 4 7 16 12 10 9 10 10 9 7 8 8 7 6 5 3 4 1 0 4 1 3 4 4
3 6 4 2 3 5 8 5 9 13 14 15 14 19 16 12 15 16 17 16 11 7 6 5 3 10 10 10 9 13 13 11 8 10 12 12 11 9 6 5 6 5 2 2 2 2 1 2 4 6 5 5 7 7
5 3 5 2 4 12 14 16 16 17 18 17 13 13 8 4 3 7 10 11 9 9 7 10 12 7 6 17 18 12 8 8 11 15 13 10 8 5 6 7 9 6 3 2 2 3 4 4 3 2 5 2 3 5
4 10 12 13 7 5 13 6 4 4 5 5 8 14 14 7 5 4 3 5 7 4 3 13 18 10 6 4 4 8 8 7 7 6 5 5 6 5 5 4 2 3 4 3 2 0 3 5 4 3 5 6 6 6
Wind_Direction
250 260 272 282 294 305 317 330 323 333 342 343 343 347 351 349 7 165 79 61 14 290 281 276 337 348 352 10 32 326 41 9 22 64 109 236 172 257 312 235 195 188 168 212 111 148 283 330 43 83 245 98 187 193
251 259 267 275 282 291 301 319 320 318 331 338 335 337 341 339 340 272 206 277 280 267 275 281 282 249 276 294 354 37 108 79 14 76 37 332 321 340 165 283 352 331 199 200 163 193 44 71 102 102 149 187 197 180
251 257 263 266 275 282 287 304 312 304 316 330 328 326 328 332 333 324 279 347 299 319 305 298 277 237 175 80 212 56 71 36 57 32 298 269 332 27 33 287 325 314 345 68 111 352 58 81 82 79 65 49 30 223
252 256 258 261 268 270 276 290 298 295 302 319 320 316 317 321 330 333 50 73 24 348 308 342 106 139 321 317 229 222 234 280 351 351 319 90 100 18 243 237 195 255 358 39 65 263 43 61 80 63 77 91 83 287
252 251 253 253 252 258 269 277 287 282 291 307 311 309 312 315 327 4 136 118 43 16 308 295 289 257 227 277 219 196 223 248 269 352 31 252 261 22 317 34 357 335 223 109 188 242 104 95 103 30 89 128 129 142
244 242 240 238 244 257 261 267 277 275 280 298 303 300 305 303 282 153 164 143 137 258 300 318 325 204 197 237 324 208 215 209 229 201 236 266 302 36 266 181 213 93 97 88 107 18 66 83 64 56 61 139 94 108
234 234 230 231 240 250 256 261 273 265 276 292 292 288 286 282 239 224 152 100 283 244 264 308 297 202 211 234 279 219 218 219 222 226 220 244 289 357 218 188 211 133 120 116 79 85 63 59 53 50 66 112 108 244
234 234 229 229 237 242 251 252 260 260 274 284 283 279 263 237 167 133 153 334 279 222 230 267 276 324 194 205 237 218 217 214 229 224 243 202 238 198 256 225 165 194 142 114 99 89 89 76 50 36 26 68 12 302
237 233 231 233 237 237 231 234 245 252 264 269 274 203 124 153 146 50 329 318 234 213 269 274 212 247 332 243 244 211 209 178 238 198 217 166 244 211 222 218 266 251 186 146 141 124 92 55 48 39 53 92 118 249
233 231 228 233 238 230 215 219 225 234 234 202 133 78 69 345 312 280 253 204 217 204 228 244 259 279 225 320 359 337 18 205 171 239 179 150 249 253 287 306 288 197 161 157 155 131 151 30 13 356 352 355 328 265
225 223 221 224 227 221 211 205 207 199 166 139 140 246 251 307 243 225 240 195 200 228 215 230 225 224 197 115 232 34 289 319 18 267 153 204 289 82 91 105 106 114 123 120 120 113 95 53 11 332 322 335 333 310
212 211 212 211 214 216 204 198 196 177 156 156 237 270 198 244 243 254 228 248 199 226 214 194 187 195 204 190 107 314 198 17 244 312 80 130 269 79 84 80 72 70 77 79 78 82 49 13 7 358 9 348 326 317
205 204 199 198 204 208 195 196 188 174 177 214 247 241 215 214 57 206 210 236 239 208 61 92 78 147 146 99 95 101 76 244 315 346 182 114 82 76 62 61 66 66 43 28 352 328 310 298 302 308 313 331 333 339
190 194 193 194 194 195 187 188 179 180 175 207 221 312 177 248 229 207 239 229 275 144 123 96 76 89 84 67 142 156 228 149 146 230 45 290 70 63 59 28 352 349 338 324 312 304 302 300 293 285 300 300 295 301
186 184 186 187 183 183 181 182 176 175 171 234 237 232 217 233 248 311 338 217 114 116 129 101 54 132 188 99 202 14 219 242 47 163 264 64 37 4 347 331 321 311 305 298 293 289 287 284 284 286 291 289 284 282
174 174 178 176 170 175 176 175 172 168 251 250 237 274 325 74 352 343 179 204 14 22 286 82 106 60 275 185 221 236 83 123 251 224 14 316 317 316 315 311 310 308 306 301 300 294 291 295 282 279 280 271 281 293
169 173 170 161 166 168 160 152 149 204 238 248 246 320 322 167 334 68 164 124 31 23 150 95 82 209 292 275 203 40 115 178 98 69 350 330 322 314 310 310 304 308 306 302 297 293 288 283 282 284 288 253 268 274
175 168 154 164 163 154 153 159 178 223 242 248 253 311 40 177 217 157 122 80 48 29 33 161 236 37 238 344 56 42 98 113 39 337 325 316 310 308 310 307 305 308 305 300 296 285 274 276 276 278 274 153 90 65
161 152 159 155 147 139 157 200 216 259 256 272 276 262 229 148 155 105 86 73 23 3 359 7 55 270 66 69 109 95 21 341 323 320 320 313 307 308 312 311 312 317 318 307 261 281 349 356 6 334 182 177 8 334
148 150 147 150 151 152 185 209 219 257 276 317 301 225 114 151 134 94 76 54 46 53 30 15 76 80 114 110 118 308 312 304 307 319 325 328 329 340 355 10 333 122 67 111 84 69 95 88 50 59 195 221 206 236
145 150 155 160 211 237 239 227 207 237 317 313 260 101 111 146 131 94 53 3 12 344 142 97 109 116 144 288 304 309 298 286 302 313 317 330 350 5 90 75 62 68 113 119 123 117 117 110 113 122 111 95 97 129
146 143 151 206 264 238 273 292 253 200 231 269 214 138 102 59 52 26 352 291 286 247 68 290 292 287 291 297 296 293 285 317 345 341 349 358 35 120 93 71 131 127 114 108 118 113 108 106 108 105 103 104 108 110
143 177 250 241 283 274 149 227 249 23 55 352 13 65 57 70 352 344 263 261 265 266 290 304 296 290 281 252 228 252 359 58 59 94 106 97 94 80 93 95 103 105 107 101 100 99 101 102 105 104 105 104 104 102
109 265 295 294 238 258 304 103 59 36 22 37 15 61 48 9 335 27 286 269 256 293 308 309 253 162 169 185 163 130 107 102 119 111 101 100 103 104 108 112 112 110 110 109 109 106 107 107 105 104 105 105 107 105
341 267 294 285 257 304 139 73 61 43 33 11 53 101 123 30 7 297 250 270 299 308 255 236 203 172 179 149 135 126 126 124 116 109 111 117 117 120 121 118 114 112 109 104 103 99 100 99 105 113 121 120 118 115
106 239 201 329 324 17 79 85 104 98 200 264 85 129 133 228 235 247 244 282 322 316 156 157 162 156 150 138 128 128 125 118 111 103 112 123 128 127 125 124 123 124 96 89 75 77 94 98 131 148 143 140 131 132
279 257 231 69 216 78 87 114 163 216 249 214 172 182 208 228 250 249 271 303 250 134 133 145 144 139 135 141 140 133 129 124 113 99 128 133 139 119 113 143 114 94 86 38 115 122 127 129 117 111 117 154 167 166
236 264 227 181 124 203 193 201 202 217 223 201 176 216 215 205 233 251 173 136 141 152 126 129 137 143 149 151 156 161 154 110 106 111 127 138 138 112 118 126 115 107 117 123 119 145 181 173 210 179 127 123 123 117
225 221 190 230 212 213 224 223 236 218 194 182 195 190 218 215 162 136 135 141 149 150 142 139 144 160 169 175 182 190 193 242 179 148 137 144 162 164 139 120 133 160 158 165 135 103 102 128 133 125 40 359 21 70
223 178 213 220 205 223 244 213 254 159 183 174 153 123 120 126 150 149 154 161 163 159 151 164 179 216 222 216 130 12 312 251 218 213 165 144 132 134 150 139 119 86 66 83 75 61 260 215 294 259 148 294 259 249
192 200 254 8 54 87 102 110 101 114 129 123 134 141 146 154 163 161 171 180 193 219 250 254 280 315 265 258 216 154 111 104 144 172 172 153 151 156 157 195 205 208 98 48 322 293 59 50 282 252 259 256 263 285
209 226 126 104 53 88 88 95 94 102 120 121 130 150 174 184 229 212 223 217 229 242 239 258 275 156 121 153 166 171 169 144 137 148 154 161 175 172 175 156 166 176 190 230 304 223 241 260 284 219 174 210 272 291
106 132 126 122 135 134 155 159 166 182 211 220 221 216 218 211 236 224 242 273 277 253 306 139 148 144 138 142 164 168 171 183 179 169 162 172 185 210 208 217 265 284 238 225 83 342 307 309 285 281 288 294 297 298
Height
1539 1540 1541 1541 1541 1540 1539 1538 1536 1535 1533 1531 1530 1527 1525 1524 1523 1523 1522 1520 1520 1518 1511 1512 1513 1512 1510 1509 1508 1503 1501 1503 1503 1512 1517 1518 1518 1510 1508 1505 1505 1513 1521 1525 1526 1527 1529 1497 1496 1504 1506 1499 1500 1504
1535 1536 1537 1538 1538 1538 1537 1536 1535 1534 1532 1531 1529 1527 1525 1524 1523 1522 1523 1522 1520 1518 1513 1510 1510 1511 1511 1511 1511 1509 1512 1512 1512 1511 1514 1514 1513 1510 1513 1518 1500 1512 1503 1507 1509 1513 1506 1502 1502 1503 1500 1500 1501 1502
1530 1532 1533 1534 1534 1535 1535 1534 1533 1532 1531 1529 1528 1527 1525 1523 1522 1522 1521 1520 1518 1515 1510 1507 1507 1509 1509 1509 1511 1512 1512 1513 1513 1514 1514 1513 1512 1510 1518 1515 1506 1498 1494 1500 1503 1510 1508 1502 1501 1503 1502 1503 1506 1504
1525 1527 1528 1529 1530 1531 1531 1531 1531 1530 1529 1528 1527 1525 1524 1523 1522 1521 1521 1520 1519 1518 1516 1508 1506 1508 1509 1509 1509 1511 1512 1513 1514 1513 1513 1514 1516 1509 1514 1510 1509 1502 1498 1501 1509 1506 1506 1503 1503 1505 1505 1505 1503 1512
1519 1521 1523 1524 1526 1527 1528 1528 1528 1527 1527 1526 1525 1524 1523 1522 1521 1520 1520 1520 1520 1521 1519 1510 1507 1507 1507 1508 1509 1510 1511 1512 1513 1514 1515 1516 1511 1511 1508 1508 1510 1503 1503 1508 1512 1504 1504 1506 1507 1507 1506 1509 1511 1511
1513 1516 1518 1520 1522 1523 1524 1524 1525 1525 1524 1524 1523 1522 1521 1520 1520 1520 1521 1521 1520 1520 1519 1516 1508 1506 1507 1507 1508 1509 1510 1512 1513 1513 1514 1512 1510 1512 1516 1517 1509 1505 1503 1502 1505 1505 1506 1506 1508 1509 1510 1513 1514 1513
1508 1510 1513 1515 1517 1519 1520 1521 1521 1522 1522 1521 1521 1520 1519 1519 1519 1520 1521 1521 1519 1520 1519 1516 1508 1505 1506 1507 1507 1508 1509 1511 1513 1513 1512 1512 1510 1511 1513 1515 1506 1504 1504 1504 1504 1506 1508 1508 1508 1509 1510 1510 1512 1514
1504 1507 1509 1511 1513 1515 1517 1518 1518 1519 1519 1519 1518 1518 1517 1517 1518 1519 1519 1519 1518 1519 1519 1518 1510 1506 1507 1506 1507 1507 1508 1510 1510 1509 1509 1508 1509 1509 1513 1503 1503 1504 1504 1505 1506 1506 1508 1510 1511 1510 1511 1511 1513 1517
1500 1503 1505 1508 1510 1511 1513 1515 1516 1517 1517 1517 1517 1517 1517 1517 1518 1518 1518 1517 1517 1521 1518 1516 1514 1512 1506 1506 1506 1506 1506 1509 1507 1505 1505 1507 1507 1509 1501 1500 1499 1500 1501 1503 1504 1505 1507 1509 1510 1510 1512 1512 1513 1513
1494 1497 1501 1505 1507 1508 1510 1512 1514 1515 1516 1516 1517 1517 1517 1517 1518 1518 1518 1517 1517 1517 1516 1513 1508 1507 1507 1505 1505 1505 1504 1505 1507 1501 1500 1503 1504 1499 1497 1496 1496 1497 1499 1502 1503 1506 1508 1508 1509 1509 1509 1510 1510 1510
1487 1492 1496 1500 1504 1506 1508 1510 1512 1514 1515 1516 1517 1517 1517 1517 1517 1517 1515 1515 1514 1513 1509 1505 1504 1505 1505 1506 1507 1506 1508 1506 1509 1502 1500 1504 1505 1500 1498 1497 1498 1500 1501 1502 1504 1506 1507 1509 1508 1508 1507 1507 1506 1505
1482 1487 1492 1496 1500 1503 1506 1509 1511 1513 1514 1516 1516 1516 1516 1516 1516 1516 1514 1510 1508 1505 1499 1498 1499 1501 1501 1503 1504 1508 1508 1507 1507 1498 1500 1503 1504 1502 1501 1500 1501 1501 1502 1502 1503 1504 1505 1506 1506 1507 1506 1505 1503 1502
1478 1483 1488 1493 1498 1501 1505 1507 1510 1513 1515 1516 1516 1516 1516 1515 1518 1515 1511 1506 1503 1495 1495 1494 1498 1499 1501 1502 1504 1507 1509 1510 1501 1503 1501 1505 1505 1504 1504 1504 1503 1503 1503 1503 1504 1504 1504 1504 1504 1503 1502 1502 1500 1499
1475 1480 1485 1491 1496 1500 1503 1507 1510 1513 1515 1515 1514 1517 1514 1513 1508 1504 1502 1498 1496 1494 1494 1495 1497 1499 1500 1502 1503 1506 1504 1503 1505 1508 1505 1505 1504 1504 1503 1504 1504 1504 1503 1502 1502 1502 1501 1500 1500 1500 1499 1498 1497 1496
1474 1479 1484 1490 1495 1499 1503 1507 1509 1513 1514 1514 1513 1514 1505 1500 1498 1499 1498 1496 1495 1496 1495 1496 1498 1499 1501 1502 1502 1503 1501 1500 1504 1508 1505 1504 1504 1503 1503 1503 1502 1501 1500 1499 1497 1496 1495 1495 1494 1494 1494 1493 1492 1492
1473 1478 1483 1489 1495 1499 1503 1507 1510 1513 1514 1513 1509 1503 1498 1496 1498 1498 1497 1495 1496 1496 1496 1497 1498 1501 1501 1500 1499 1498 1497 1503 1505 1505 1505 1505 1505 1504 1502 1500 1497 1495 1493 1491 1490 1489 1488 1488 1487 1487 1485 1486 1486 1486
1473 1476 1482 1490 1496 1501 1505 1508 1512 1512 1511 1507 1502 1501 1498 1498 1497 1497 1497 1497 1497 1497 1498 1498 1500 1499 1499 1499 1498 1502 1506 1506 1505 1505 1505 1504 1502 1499 1497 1494 1492 1490 1488 1487 1485 1485 1484 1484 1483 1482 1481 1482 1482 1482
1475 1481 1486 1492 1497 1501 1505 1508 1509 1509 1506 1502 1501 1500 1498 1498 1499 1498 1498 1499 1498 1498 1498 1499 1500 1500 1501 1499 1503 1506 1505 1506 1505 1504 1503 1501 1498 1496 1493 1490 1489 1487 1485 1483 1483 1482 1480 1480 1479 1479 1478 1479 1480 1480
1478 1485 1490 1495 1500 1504 1506 1508 1508 1505 1501 1499 1498 1498 1498 1498 1498 1498 1498 1498 1499 1499 1499 1499 1500 1502 1504 1503 1504 1505 1505 1504 1503 1502 1499 1497 1495 1492 1490 1488 1486 1484 1482 1481 1481 1480 1479 1479 1478 1477 1478 1479 1479 1479
1487 1491 1495 1499 1502 1503 1504 1505 1505 1503 1499 1498 1496 1497 1498 1498 1498 1498 1498 1499 1499 1499 1500 1501 1502 1503 1504 1505 1505 1505 1504 1503 1501 1499 1497 1495 1492 1490 1488 1486 1483 1483 1483 1482 1481 1481 1480 1480 1479 1479 1478 1478 1478 1477
1491 1495 1499 1501 1503 1502 1502 1501 1500 1500 1498 1497 1497 1497 1497 1498 1499 1500 1500 1500 1501 1501 1501 1503 1504 1504 1504 1503 1503 1503 1501 1500 1498 1497 1495 1493 1491 1489 1488 1487 1487 1486 1485 1484 1483 1483 1482 1482 1482 1481 1481 1481 1481 1482
1497 1501 1503 1504 1502 1502 1500 1500 1500 1501 1500 1498 1498 1497 1499 1500 1501 1502 1503 1502 1501 1501 1501 1501 1501 1501 1501 1500 1500 1499 1498 1497 1495 1495 1494 1493 1492 1491 1490 1489 1489 1489 1488 1487 1485 1487 1487 1487 1487 1487 1487 1487 1487 1488
1502 1503 1503 1502 1501 1501 1502 1500 1499 1498 1498 1498 1498 1499 1501 1503 1504 1503 1502 1502 1500 1499 1499 1498 1497 1497 1497 1497 1497 1497 1496 1495 1494 1494 1494 1494 1494 1493 1492 1491 1491 1491 1491 1491 1491 1491 1491 1492 1493 1493 1494 1494 1495 1496
1503 1503 1502 1501 1501 1500 1499 1498 1499 1501 1500 1500 1501 1502 1504 1505 1505 1504 1503 1500 1498 1497 1496 1495 1495 1495 1496 1496 1496 1496 1496 1495 1496 1497 1498 1497 1496 1496 1496 1496 1496 1496 1497 1497 1498 1499 1499 1500 1501 1502 1503 1503 1504 1504
1505 1504 1504 1501 1499 1499 1498 1500 1502 1503 1504 1503 1503 1505 1505 1505 1505 1504 1502 1497 1495 1494 1494 1494 1494 1495 1495 1495 1496 1497 1498 1499 1500 1501 1501 1501 1501 1501 1502 1503 1504 1504 1505 1506 1507 1508 1508 1508 1509 1509 1509 1510 1511 1511
1505 1503 1503 1500 1500 1499 1499 1502 1504 1504 1504 1503 1503 1504 1504 1505 1503 1501 1498 1495 1494 1493 1493 1493 1494 1494 1495 1497 1497 1499 1501 1502 1504 1505 1506 1506 1507 1508 1508 1509 1509 1510 1509 1510 1510 1510 1511 1511 1511 1511 1512 1512 1512 1513
1504 1501 1501 1501 1501 1501 1502 1503 1503 1504 1503 1501 1502 1503 1503 1502 1500 1497 1495 1493 1493 1493 1493 1494 1495 1496 1499 1501 1502 1504 1505 1507 1508 1509 1510 1511 1511 1512 1512 1512 1512 1513 1513 1512 1512 1511 1512 1513 1514 1514 1514 1514 1515 1516
1501 1501 1501 1501 1501 1501 1501 1501 1501 1500 1499 1498 1500 1498 1497 1497 1496 1495 1493 1493 1494 1495 1496 1498 1500 1502 1503 1505 1506 1506 1508 1509 1510 1510 1510 1511 1512 1513 1513 1513 1513 1514 1514 1514 1514 1514 1514 1515 1516 1516 1516 1517 1517 1517
1499 1499 1501 1500 1501 1500 1499 1498 1495 1493 1493 1495 1495 1495 1495 1494 1494 1495 1496 1497 1498 1500 1501 1503 1505 1506 1507 1507 1508 1509 1509 1510 1512 1511 1512 1512 1513 1515 1515 1516 1516 1516 1517 1517 1517 1517 1516 1516 1517 1517 1517 1518 1518 1518
1498 1498 1498 1497 1497 1495 1493 1493 1492 1491 1492 1493 1494 1495 1495 1496 1498 1498 1500 1501 1502 1503 1505 1506 1507 1507 1508 1509 1510 1511 1508 1508 1510 1512 1512 1513 1514 1515 1516 1516 1517 1517 1517 1518 1518 1518 1517 1517 1517 1518 1517 1517 1517 1518
1496 1496 1495 1493 1493 1494 1494 1493 1492 1492 1493 1495 1496 1498 1499 1501 1502 1502 1502 1503 1503 1504 1504 1504 1504 1506 1505 1506 1509 1512 1510 1510 1509 1510 1512 1514 1515 1516 1516 1517 1517 1517 1518 1518 1518 1517 1517 1517 1517 1517 1517 1517 1516 1516
1496 1494 1496 1495 1497 1498 1497 1497 1498 1498 1500 1501 1502 1502 1503 1503 1503 1502 1501 1502 1502 1502 1502 1503 1505 1507 1505 1507 1509 1510 1511 1512 1513 1513 1514 1515 1516 1516 1517 1517 1517 1517 1518 1517 1517 1517 1517 1516 1516 1515 1516 1515 1515 1514
1497 1497 1498 1500 1502 1503 1502 1501 1502 1503 1503 1502 1502 1502 1502 1503 1502 1501 1501 1501 1502 1502 1502 1502 1505 1506 1507 1509 1510 1511 1512 1513 1514 1515 1515 1516 1516 1516 1517 1517 1517 1517 1517 1517 1516 1516 1516 1515 1515 1515 1514 1514 1513 1513